Vertical_Velocity
-4 -4 -4 1 9 0 -5 -0 0 11 -6 1 -0 5 6 3 0 -3 -3 -2 -1 -3 1 -0 0 -3 -1 1 -3 1 -4 -2 -0 -1 -1 -1 -1 -2 -1 -2 -2 -3 -3 -1 0 -1 -3 0 -1 -1 -1 -0 1 0
-1 -3 -7 -2 -6 15 -8 -9 0 0 3 -0 -5 11 10 2 3 3 -3 -2 -1 -1 -2 0 1 -1 -1 0 -0 -1 -1 -1 -1 -3 0 -1 0 0 -1 -2 0 -4 -7 -5 -6 -6 -1 -0 -1 -0 -2 1 -1 -0
-4 8 -0 -2 2 -5 6 -1 1 -3 5 2 -9 -1 10 8 -0 2 -3 -2 0 -4 -0 0 -1 -1 -1 0 2 -2 -1 -1 -0 -0 -3 -1 -1 -3 -2 -3 0 0 -0 -1 -2 -1 -1 1 0 0 -0 0 -0 -1
3 -3 1 -7 -0 2 1 -6 -1 4 -4 0 -1 1 -3 9 4 -2 -1 0 -0 -3 -6 0 0 -2 -1 -0 1 2 0 -1 -1 -0 -1 -1 -1 -0 -2 -3 -2 -6 -1 -2 -2 -0 1 2 -0 -2 0 1 1 0
0 -1 -4 -3 -7 4 -6 4 -5 -3 1 5 -5 3 1 6 8 0 2 2 -0 -0 -6 -1 0 -0 -2 -0 1 1 1 0 -1 -1 -1 -1 0 -1 -0 -1 -0 -3 -6 -4 -7 -3 -3 -1 1 1 -0 1 1 -2
-1 9 -7 -1 -3 -2 5 -2 0 -5 -0 -0 6 -1 2 0 7 8 2 1 -1 -1 -6 -1 0 0 -0 2 3 1 1 0 -1 -1 -1 -0 -0 -0 -1 -0 -5 -0 -1 -0 -5 -2 -0 -1 -1 -1 -2 -2 -1 -1
-4 9 -2 -7 1 -4 -1 0 -0 3 -4 -1 8 2 -4 2 5 7 10 -1 2 -1 -2 1 1 2 1 -0 0 1 1 -1 -0 -1 -0 -1 -1 1 0 -0 -2 -0 1 -1 1 -1 0 0 -2 -0 1 3 0 -2
-0 1 8 0 -4 -3 -2 2 -1 5 4 -3 5 11 7 -1 -1 -1 9 8 -0 -3 -1 -3 1 1 1 -0 -1 0 -0 -0 0 -0 0 -0 1 1 0 -6 -0 1 2 1 -0 -0 -0 -1 -1 -1 -1 -1 3 -1
2 1 8 1 -1 -2 -2 -1 -0 -0 4 1 24 6 4 3 -5 -2 7 9 1 3 -3 -1 -4 -3 2 1 0 0 1 -1 0 -0 -1 -0 -1 -3 -9 -3 -2 -6 -10 -6 0 1 -0 -1 0 1 -0 0 -0 -0
-0 0 -4 -3 -2 2 1 -0 3 -1 8 18 18 -3 -2 -5 -10 4 9 3 -1 1 3 -1 1 -1 -1 2 2 -2 1 -0 -2 -4 1 1 -5 -7 -2 -1 3 -1 -1 -1 -2 1 -1 -0 -1 0 -1 -1 -1 -1
-0 -1 -1 -0 0 1 3 1 1 6 24 20 3 0 4 7 -15 3 4 -1 2 2 3 -0 -3 -4 0 -4 -2 -0 -2 -1 -1 -6 -5 -1 -4 -3 1 -1 -1 2 1 -0 -0 -2 -1 -2 -2 -2 -1 -1 -2 -1
5 4 0 -1 -2 -0 2 -1 11 20 -4 -3 -4 -3 0 1 0 3 -2 -1 0 -7 4 -4 -3 -0 -1 -1 -4 2 -2 -3 -3 -1 -0 -1 -8 -1 0 -0 -0 0 0 -1 -1 -1 -1 -1 -2 -2 -1 -1 -1 -1
5 -0 5 2 0 2 4 4 5 25 -5 10 2 -3 4 4 5 3 -2 -3 -0 -1 -3 1 1 -5 1 2 -0 -3 -3 -3 -1 2 -4 -8 -0 1 1 1 1 2 1 1 -0 1 -0 -1 -1 -2 -3 -0 -0 -1
5 0 2 1 1 0 2 12 19 18 5 -4 -4 4 -0 3 -1 -4 -3 -3 -2 -1 -3 -2 -0 -5 1 -1 -1 -5 -3 -2 2 2 -8 -3 -5 -1 -0 2 -1 -2 -0 -0 -0 -1 -2 -2 -2 -1 -0 -1 -1 -1
1 2 5 8 0 2 7 16 21 6 -4 -2 4 -3 -0 -7 1 -1 -0 0 2 3 -10 -2 -1 -4 1 -3 -1 -1 3 -1 -4 -8 -4 -2 -1 -3 -2 -1 -0 -1 -1 -1 -1 -1 -1 -0 0 -0 -2 -1 1 -0
-3 16 -2 8 3 2 16 33 37 15 7 -3 5 2 1 -1 2 2 -1 -1 -0 1 3 1 -1 -2 -0 -3 -1 -3 -3 -6 -8 -2 -1 -1 -1 -0 -1 0 1 -1 -2 -1 -0 -0 0 -1 -2 -2 -1 0 -0 -2
22 -8 -5 4 -4 4 8 51 18 4 -4 4 -1 3 -3 0 -5 -2 -3 -4 2 6 -1 -1 -2 -7 -2 -1 0 -2 -6 -5 -3 -1 -0 -1 -7 -3 -0 -1 -0 -1 -1 -0 -0 -1 -1 -1 -1 -1 -0 -1 -2 -3
29 -3 -7 -3 -2 35 66 9 2 1 2 2 -4 -3 -2 2 2 2 1 -2 -11 2 0 -4 -6 -0 -2 -2 -2 -4 -1 0 1 0 -3 0 2 1 1 -2 -1 -1 -1 -1 -1 0 -0 -2 -2 -4 -3 -3 -2 -0
6 -6 -6 -3 -3 14 1 10 0 -2 0 2 2 1 -1 -2 -1 4 -2 4 2 -1 2 1 -1 -1 -3 -2 -2 -0 -1 -3 -4 0 1 3 4 -1 -1 -1 -1 -1 -1 -1 1 1 -1 -2 -2 -1 -0 -2 -1 -2
19 2 -1 2 18 -1 -2 -1 9 -4 -1 1 1 2 -1 -1 1 7 4 -4 4 1 1 -0 -2 -3 -1 -1 -1 -3 -2 -2 -7 -3 2 2 0 0 -1 -1 0 -0 -1 0 0 0 -1 -3 -3 -1 -1 -3 -3 -3
53 2 32 25 11 -4 -3 -1 3 -3 -0 -1 5 -3 1 4 3 -0 3 -4 3 -0 -1 -2 -2 -0 4 0 -2 -0 -1 -2 -9 -9 -14 -7 -1 -1 0 1 -2 -0 -1 -1 -1 -1 -3 -2 -1 -2 -2 -1 -2 -2
11 31 -9 19 -9 -1 -3 2 -1 1 -4 2 -2 -0 -0 0 1 -2 1 1 -1 -2 -1 -1 -4 3 2 2 -4 2 0 0 2 1 2 2 -8 -5 -2 -3 -4 -2 -2 0 -0 -3 -2 -2 -2 -2 -2 -3 -0 -1
-2 2 -7 -2 -8 -3 -4 5 -3 2 -3 1 0 -1 0 0 1 5 -2 -0 -0 -3 -1 -0 8 -3 0 1 1 1 1 1 -2 -2 -0 1 2 4 -0 -2 -1 -1 -1 -0 -1 -1 -1 -2 -2 -2 -1 -1 -1 1
7 -10 -4 -4 -2 2 0 -0 0 -1 -1 -0 -1 1 1 -0 0 -1 -1 -1 -2 -2 2 -2 -3 -3 3 4 0 -1 -1 -0 1 -1 -0 -2 -2 -0 -2 2 1 -0 -0 -1 -0 -1 -1 -1 -2 -1 -1 -0 -0 0
-17 -1 -5 1 2 -4 -1 1 1 -1 0 0 -1 1 -0 1 -0 0 -1 -1 1 -2 -4 0 1 5 -0 1 0 -0 -0 -0 -2 -1 -1 -0 2 -1 -2 -1 -0 2 -0 -1 -1 -0 0 0 -0 -1 -1 0 2 1
-5 -0 -1 0 0 -5 -1 -1 -0 -1 -1 0 0 1 0 0 1 -2 -3 -5 -4 -11 -12 -10 -6 -1 1 2 -5 -4 -3 -2 -2 -2 0 1 -0 -1 1 0 -1 0 -1 1 0 -2 0 -1 0 1 2 2 -2 -1
-1 -1 0 0 -0 -1 -0 1 -1 -2 -1 -1 -0 1 0 0 -2 -3 -0 2 -3 -5 -2 -3 -1 2 -3 -3 -0 0 -1 -1 -1 -0 0 0 0 0 -0 -1 1 1 1 1 1 1 2 3 3 3 -1 -3 0 0
1 -0 -3 0 -1 1 -2 -0 -1 -1 -0 1 -0 -1 -3 -5 -3 2 0 1 -1 4 -2 5 4 6 2 1 1 -2 -2 0 -0 -1 -0 -0 -0 -1 -1 -1 -0 1 1 -0 0 0 1 -1 -3 -3 -3 -0 3 -0
-1 1 -2 -0 -1 -2 1 -0 -0 0 2 -0 -1 0 1 0 1 4 2 -0 4 -0 -0 1 5 7 1 2 0 0 2 -0 -3 -3 0 0 -2 -2 -1 -1 -1 -1 -1 -1 -2 -1 -1 -1 1 2 2 1 3 2
-0 2 -3 -0 -1 -0 1 1 1 1 3 1 -2 -2 -1 3 3 4 0 -0 -3 4 -1 -2 -4 4 -2 -1 -1 1 -1 -5 -3 2 -1 -1 -2 -2 -3 -3 -2 -2 -1 -1 1 1 -1 1 1 2 4 3 0 0
2 -2 -2 -1 0 0 1 6 3 2 0 1 3 -3 3 2 6 9 0 -2 2 2 -1 0 0 1 1 -1 -1 -3 -6 -2 1 1 -1 -2 -4 -4 -3 -1 -1 0 -0 -1 -1 1 1 1 2 0 -2 1 -2 1
-1 -0 -2 -0 1 -3 -2 1 1 -1 2 -1 1 -0 1 -1 -0 -1 3 4 8 3 4 2 1 -0 0 -1 -1 -4 -4 -2 -1 -0 -1 -1 0 -0 0 -0 -2 -2 0 1 -1 -0 1 -0 -1 0 -0 2 1 1
-0 1 0 -1 1 2 -3 2 -0 -1 -3 -0 0 1 0 -1 0 3 3 1 4 5 2 1 1 0 0 -1 -6 -4 -0 1 1 -0 -0 -0 -0 -1 -2 -1 -0 1 -0 0 1 0 1 3 1 1 1 -0 -0 0
Height
1471 1470 1467 1466 1462 1457 1459 1459 1458 1456 1455 1453 1454 1453 1453 1456 1458 1460 1461 1461 1462 1463 1469 1470 1471 1472 1474 1475 1477 1478 1484 1484 1485 1487 1487 1487 1488 1489 1489 1488 1488 1490 1494 1491 1492 1488 1492 1482 1480 1481 1483 1481 1480 1477
1464 1464 1462 1461 1459 1457 1452 1456 1455 1454 1453 1452 1453 1453 1454 1455 1457 1458 1460 1461 1461 1463 1468 1470 1470 1472 1473 1474 1474 1476 1478 1477 1478 1482 1485 1486 1485 1492 1491 1492 1487 1489 1488 1488 1488 1486 1483 1482 1481 1483 1482 1482 1481 1480
1458 1457 1456 1457 1455 1453 1453 1451 1452 1452 1451 1451 1451 1452 1453 1454 1455 1457 1458 1459 1461 1463 1470 1471 1471 1472 1473 1473 1474 1475 1476 1476 1476 1476 1478 1482 1482 1486 1488 1486 1483 1483 1483 1484 1484 1482 1482 1482 1482 1483 1482 1482 1483 1481
1451 1451 1451 1452 1452 1448 1448 1447 1448 1448 1447 1446 1447 1449 1452 1455 1455 1456 1456 1458 1459 1461 1466 1471 1470 1471 1472 1472 1473 1473 1473 1474 1476 1477 1477 1479 1480 1481 1483 1480 1481 1478 1480 1481 1482 1480 1480 1480 1480 1481 1481 1482 1481 1481
1446 1444 1443 1444 1446 1446 1444 1444 1443 1445 1444 1442 1444 1448 1450 1453 1455 1454 1455 1456 1457 1461 1464 1469 1470 1470 1471 1471 1471 1471 1472 1473 1475 1476 1477 1479 1478 1480 1480 1480 1478 1469 1470 1475 1475 1470 1473 1475 1478 1479 1480 1480 1480 1480
1437 1436 1437 1437 1438 1440 1439 1440 1440 1441 1443 1443 1444 1447 1450 1452 1455 1454 1454 1455 1455 1457 1459 1468 1470 1469 1470 1471 1472 1471 1472 1473 1474 1474 1476 1475 1476 1478 1480 1479 1460 1460 1462 1464 1466 1468 1472 1474 1475 1477 1478 1479 1479 1478
1427 1426 1427 1430 1429 1431 1434 1434 1436 1437 1440 1442 1443 1445 1450 1451 1453 1454 1452 1450 1451 1455 1457 1466 1468 1469 1470 1471 1472 1472 1471 1472 1473 1474 1474 1475 1475 1476 1476 1475 1455 1457 1461 1463 1465 1468 1471 1472 1473 1474 1475 1476 1477 1476
1415 1417 1417 1419 1421 1424 1427 1429 1431 1432 1435 1439 1441 1443 1447 1449 1452 1452 1449 1447 1449 1453 1454 1462 1467 1468 1468 1468 1470 1471 1471 1471 1472 1473 1474 1473 1474 1473 1470 1453 1454 1456 1459 1462 1464 1466 1468 1470 1471 1472 1472 1473 1473 1473
1403 1405 1406 1409 1414 1416 1420 1423 1426 1428 1431 1435 1439 1440 1443 1447 1450 1450 1448 1447 1448 1453 1450 1454 1460 1464 1464 1466 1468 1470 1470 1473 1473 1472 1472 1472 1469 1465 1446 1445 1448 1451 1455 1458 1462 1464 1466 1467 1468 1469 1470 1470 1470 1469
1389 1392 1395 1399 1404 1409 1411 1416 1420 1424 1429 1431 1434 1437 1438 1440 1447 1450 1449 1446 1447 1446 1445 1445 1450 1456 1460 1463 1466 1469 1469 1471 1478 1469 1469 1468 1455 1439 1440 1441 1445 1448 1453 1456 1459 1462 1463 1464 1465 1466 1467 1467 1466 1465
1373 1376 1381 1387 1393 1399 1402 1407 1414 1419 1421 1424 1425 1430 1433 1435 1444 1447 1441 1440 1440 1439 1435 1437 1441 1447 1454 1459 1461 1463 1468 1470 1474 1468 1470 1466 1450 1432 1433 1437 1441 1446 1450 1453 1456 1457 1459 1461 1462 1463 1463 1462 1461 1460
1363 1365 1370 1375 1382 1389 1394 1399 1407 1410 1412 1416 1420 1425 1432 1433 1437 1439 1435 1431 1430 1424 1422 1427 1432 1437 1447 1451 1454 1460 1464 1469 1472 1463 1465 1461 1430 1426 1429 1434 1438 1443 1447 1450 1453 1455 1457 1458 1459 1459 1459 1458 1456 1455
1347 1352 1358 1363 1370 1377 1384 1391 1397 1402 1407 1414 1417 1421 1421 1421 1426 1428 1422 1422 1421 1411 1413 1417 1427 1432 1441 1446 1450 1455 1464 1465 1459 1460 1449 1432 1421 1424 1428 1432 1437 1442 1446 1449 1451 1453 1454 1456 1456 1455 1455 1453 1451 1449
1332 1338 1344 1351 1358 1366 1374 1382 1389 1390 1403 1407 1408 1411 1408 1405 1402 1399 1397 1395 1393 1396 1402 1411 1418 1424 1431 1440 1444 1452 1454 1455 1453 1455 1439 1417 1415 1420 1426 1431 1435 1440 1444 1447 1449 1451 1452 1452 1452 1451 1450 1448 1446 1444
1319 1324 1331 1338 1347 1355 1364 1372 1378 1384 1391 1393 1394 1389 1388 1382 1383 1385 1388 1390 1390 1392 1398 1408 1415 1419 1429 1437 1438 1447 1452 1447 1440 1428 1414 1407 1412 1418 1424 1429 1434 1439 1442 1445 1447 1448 1448 1447 1447 1446 1445 1443 1441 1440
1306 1313 1317 1326 1335 1346 1355 1364 1371 1377 1378 1381 1379 1378 1377 1379 1380 1381 1384 1388 1390 1393 1397 1401 1413 1420 1425 1425 1433 1431 1436 1430 1410 1404 1400 1405 1412 1418 1423 1429 1433 1437 1440 1442 1443 1444 1444 1443 1442 1442 1441 1439 1437 1436
1293 1296 1305 1315 1327 1339 1347 1352 1356 1361 1364 1363 1365 1365 1368 1369 1366 1369 1375 1383 1387 1390 1390 1396 1405 1406 1417 1427 1423 1415 1409 1394 1391 1394 1398 1404 1410 1417 1423 1428 1432 1435 1437 1439 1440 1441 1440 1440 1440 1439 1438 1436 1434 1433
1274 1280 1294 1306 1319 1332 1339 1337 1344 1349 1349 1350 1355 1357 1363 1364 1363 1366 1368 1376 1386 1386 1385 1387 1390 1405 1402 1404 1402 1386 1385 1387 1390 1394 1399 1406 1412 1418 1422 1427 1430 1433 1434 1436 1437 1437 1437 1437 1437 1436 1434 1433 1431 1430
1255 1265 1280 1296 1309 1319 1324 1327 1334 1337 1342 1344 1348 1353 1359 1362 1364 1365 1366 1374 1378 1383 1382 1384 1389 1389 1383 1375 1372 1374 1378 1381 1387 1395 1402 1409 1414 1418 1422 1426 1429 1430 1432 1434 1435 1435 1435 1435 1435 1434 1432 1431 1430 1428
1241 1252 1268 1288 1303 1309 1317 1323 1325 1330 1339 1343 1348 1354 1359 1362 1363 1366 1366 1374 1379 1380 1380 1380 1375 1369 1366 1365 1366 1370 1375 1381 1387 1395 1403 1409 1413 1417 1421 1424 1426 1428 1430 1431 1432 1433 1433 1433 1433 1432 1430 1429 1428 1427
1231 1245 1265 1278 1294 1304 1311 1316 1320 1329 1336 1341 1346 1352 1358 1361 1363 1367 1368 1374 1379 1374 1372 1370 1369 1367 1365 1365 1369 1374 1378 1383 1388 1392 1396 1404 1411 1415 1419 1421 1424 1426 1428 1429 1429 1430 1431 1431 1431 1430 1429 1428 1427 1425
1226 1244 1258 1280 1294 1305 1311 1314 1316 1324 1334 1340 1346 1351 1356 1360 1361 1366 1367 1371 1371 1368 1368 1367 1367 1367 1367 1368 1373 1379 1383 1389 1394 1397 1400 1405 1407 1411 1414 1418 1422 1424 1426 1427 1427 1428 1429 1429 1429 1428 1427 1426 1425 1425
1241 1257 1270 1282 1294 1308 1317 1313 1315 1325 1335 1343 1346 1350 1355 1356 1357 1361 1367 1366 1364 1365 1364 1365 1366 1368 1371 1373 1376 1381 1386 1391 1393 1396 1400 1403 1407 1410 1413 1417 1419 1422 1424 1425 1425 1426 1426 1427 1427 1426 1425 1425 1424 1422
1258 1265 1276 1288 1296 1305 1309 1312 1317 1324 1335 1340 1345 1352 1353 1354 1355 1357 1358 1358 1358 1359 1361 1365 1368 1371 1374 1376 1378 1382 1386 1390 1393 1396 1399 1402 1405 1407 1411 1416 1418 1420 1422 1422 1423 1424 1424 1424 1424 1423 1422 1421 1420 1419
1268 1281 1282 1286 1291 1299 1309 1316 1322 1326 1333 1339 1343 1348 1349 1350 1351 1353 1351 1348 1350 1353 1359 1364 1369 1371 1370 1373 1378 1382 1386 1389 1392 1395 1398 1401 1403 1406 1410 1413 1415 1417 1419 1420 1420 1420 1421 1421 1421 1420 1419 1418 1417 1416
1277 1283 1283 1288 1295 1297 1306 1312 1318 1323 1326 1336 1338 1341 1343 1343 1342 1337 1337 1336 1339 1346 1352 1358 1363 1368 1371 1374 1377 1381 1384 1387 1390 1393 1396 1398 1400 1403 1406 1408 1411 1413 1414 1415 1416 1416 1417 1416 1416 1416 1415 1414 1413 1411
1283 1289 1287 1289 1291 1293 1301 1306 1310 1311 1318 1324 1331 1336 1335 1330 1328 1328 1328 1331 1336 1341 1347 1357 1362 1366 1369 1373 1377 1381 1383 1386 1389 1392 1394 1396 1398 1400 1402 1404 1406 1408 1409 1409 1410 1410 1410 1410 1410 1410 1409 1409 1408 1406
1286 1287 1289 1292 1292 1294 1298 1302 1306 1308 1312 1313 1319 1324 1320 1318 1322 1324 1325 1330 1334 1339 1348 1357 1364 1369 1372 1375 1378 1380 1383 1385 1387 1390 1392 1394 1395 1397 1399 1400 1402 1403 1403 1404 1404 1404 1403 1403 1402 1401 1401 1401 1400 1399
1289 1291 1291 1297 1298 1301 1302 1301 1305 1307 1308 1310 1311 1315 1320 1321 1323 1321 1324 1329 1334 1341 1349 1355 1362 1367 1371 1374 1377 1380 1381 1383 1386 1388 1390 1391 1393 1395 1396 1397 1398 1399 1399 1399 1398 1398 1397 1396 1396 1395 1396 1395 1395 1395
1292 1292 1295 1303 1308 1309 1306 1305 1306 1307 1307 1309 1311 1316 1320 1322 1323 1323 1326 1332 1339 1345 1352 1360 1364 1368 1370 1373 1375 1376 1378 1383 1386 1389 1388 1389 1391 1393 1393 1394 1394 1393 1392 1392 1392 1391 1391 1390 1390 1389 1390 1391 1391 1391
1292 1294 1299 1306 1311 1311 1310 1309 1310 1310 1310 1310 1311 1313 1316 1322 1327 1330 1335 1341 1347 1353 1358 1362 1366 1369 1371 1371 1372 1373 1379 1384 1385 1386 1386 1387 1387 1388 1388 1387 1386 1385 1385 1385 1384 1384 1383 1384 1384 1385 1385 1385 1386 1386
1294 1295 1299 1306 1313 1314 1312 1313 1313 1315 1316 1318 1320 1320 1322 1325 1332 1341 1344 1349 1354 1357 1361 1364 1366 1367 1368 1369 1371 1376 1380 1382 1382 1382 1381 1381 1381 1380 1380 1379 1378 1377 1376 1376 1376 1376 1376 1376 1376 1377 1378 1378 1380 1381
1297 1296 1298 1304 1309 1312 1314 1313 1317 1322 1326 1328 1327 1326 1328 1330 1336 1343 1347 1352 1356 1359 1361 1362 1364 1365 1368 1369 1374 1378 1379 1378 1377 1376 1375 1375 1374 1374 1373 1372 1371 1370 1369 1369 1369 1369 1369 1370 1373 1374 1375 1375 1377 1379